Contact Us:
Email: info@sawbill.com
Phone: (218)663-7150
Fax: (218)663-7980
Mail: 4620 Sawbill Trail
Box 2129
Tofte, MN 55615


Powered by
Movable Type 3.15
 
Sawbill Weather History
Check out the 7 Day Weather Forecast for the Superior National Forest.
Date High
Temperature
Low
Temperature
Barometric
Pressure
Relative
Humidity 7AM
9 AM
Temperature
Moisture Snow
3/9/17 15 -10 30.32 37% -10 0"
3/8/17 12 3 30.08 63% 4 Trace Trace
3/7/17 27 8 29.70 63% 8 0"
3/6/17 44 22 29.50 83% 22 Trace Trace
3/5/17 37 28 29.88 94% 36 0"
3/4/17 29 1 30.00 75% 29 0"
3/3/17 16 -5 30.30 35% 1 0"
3/2/17 14 -7 30.26 34% -5 0"
3/1/17 24 7 30.14 44% 8 0"
2/28/17 29 2 30.00 49% 25 0"
2/27/17 29 2 30.00 78% 25 .19" 2.5"
2/26/17 19 -1 29.90 40% 2 Trace Trace
2/25/17 22 9 29.84 65% 17 Trace Trace
2/24/17 17 8 29.94 45% 9 0"
2/23/17 30 10 30.20 47% 10 0"
2/22/17 37 27 29.96 59% 27 Trace Trace
2/21/17 45 33 29.86 64% 34 0"
2/20/17 42 33 29.60 92% 33 .72"
2/19/17 42 31 30.02 69% 37 0"
2/18/17 46 31 29.94 77% 32 0"
2/17/17 47 22 29.78 82% 35 0"
2/16/17 26 17 29.80 78% 22 0"
2/15/17 17 7 29.94 75% 17 0"
2/14/17 30 7 29.96 51% 7 0"
2/13/17 40 19 29.86 66% 28 0"
2/12/17 28 19 30.80 60% 21 Trace Trace
2/11/17 28 14 29.94 65% 20 .07" .5"
2/9/17 14 -2 29.78 79% 14 .3" 3.5"
2/8/17 8 -10 30.08 61% -8 Trace Trace
2/7/17 10 -1 30.02 61% -1 .2" 2"
2/6/17 12 4 30.00 68% 4 .58" 8"
2/5/17 12 3 30.28 66% 3 Trace Trace
2/4/17 22 5 30.24 64% 5 .08 1"
2/3/17 11 -7 30.04 60% 5 0
2/2/17 6 -7 30.14 60% -7 0
2/1/17 9 -5 30.40 60% -5 .26" 3"
1/31/17 24 2 30.01 60% 2 0"
1/30/17 21 11 29.80 83% 21 0.25" 2"
1/29/17 12 -4 29.86 55% 10 0"
1/28/17 20 7 29.92 55% 7 0"
1/27/17 27 16 29.84 59% 19 Trace Trace
1/26/17 28 24 29.90 75% 26 0"
1/25/17 32 24 29.90 84% 24 0"
1/24/17 36 31 29.94 88% 31 Trace Trace
1/23/17 35 32 29.88 98% 33 Trace Trace
1/22/17 35 25 28.40 98% 34 Trace Trace
1/20/17 34 25 29.88 95% 25 0"
1/19/17 35 20 29.92 98% 29 0"
1/18/17 34 9 29.92 69% 29 0"
1/16/17 33 8 30.03 67% 8 0"
1/15/17 30 10 30.12 69% 16 0"
1/14/17 14 3 30.19 60% 16 0"
1/13/17 6 -18 30.30 26% 3 0"
1/12/17 3 -19 30.46 26% -18 0"
1/11/17 24 -4 29.84 72% -2 .35" 4.20"
1/9/17 22 5 29.74 90% 22 .34" 3.5"
1/7/17 10 -9 30.10 70% 6 0"
1/6/17 -3 -9 30.28 70% -9 0"
1/5/17 -1 -16 30.16 70% -8 0"
1/4/17 -7 -14 29.95 70% -14 0"
1/3/17 26 -10 29.94 70% -10 Trace Trace
1/2/17 26 16 30.00 93% 25 .41" 4.75"
1/1/17 19 2 30.16 82% 16 Trace Trace
12/31/16 19 8 29.89 82% 18 .07" .8"
12/30/16 17 6 29.80 79% 9 .14" 2.5"
12/29/16 21 7 29.92 75% 8 .06" .75"
12/28/16 23 18 29.78 83% 19 .25" 2.75"
12/27/16 23 -4 29.75 93% 20 Trace Trace
12/26/16 35 13 29.65 89% 20 Trace Trace
12/25/16 33 9 29.62 98% 28 .27" 2"
12/24/16 23 3 30.08 85% 9 0
12/23/16 34 23 30.10 84% 23 0
12/22/16 32 21 30.08 67% 25 0
12/21/16 28 9 30.02 87% 21 .08" 1"
12/20/16 24 8 30.00 72% 17 .71" 8"
12/19/16 22 5 29.79 84% 5 .16" 1.5"
12/18/16 4 -17 30.01 65% 4 0
12/17/16 -1 -19 30.14 65% -17 0
12/16/16 7 -5 30.00 65% -4 Trace Trace
12/15/16 1 -10 30.02 65% -1 0
12/14/16 -6 -10 30.14 65% -8 0
12/13/16 2 -9 29.90 65% -8 1" .12"
12/12/16 12 -9 29.97 65% -9 0
12/11/16 14 3 30.00 65% 7 .07" .75"
12/10/16 5 -9 30.10 65% 5 0
12/9/16 13 0 30.24 65% 0 Trace Trace
12/8/16 21 11 30.23 65% 11 .08" .75"
12/7/16 22 18 30.07 77% 19 .14" 2.75"
12/6/16 30 19 29.76 75% 19 .12" 3"
12/5/16 33 28 29.74 90% 29 .33" 2.25"
12/4/16 32 28 29.89 82% 29 .12" 1.25"
12/3/16 28 25 30.00 83% 27 Trace Trace
12/2/16 27 24 30.16 82% 25 0
12/1/16 25 23 30.10 86% 24 0
11/30/16 36 25 29.80 79% 25 Trace Trace
11/29/16 37 34 29.74 95% 34 .30" Trace
11/28/16 39 35 29.50 98% 36 1.25"
11/27/16 37 33 29.66 98% 35 0
11/26/16 33 30 30.13 98% 33 0
11/25/16 34 29 30.10 87% 29 Trace Trace
11/24/16 34 31 30.13 87% 32 .07" .5"
11/23/16 34 30 30.10 86% 30 .15" 1.5"
11/22/16 31 20 30.10 88% 30 .14" 1.75"
11/21/16 27 12 30.18 78% 20 0
11/20/16 23 10 30.20 71% 16 0
11/19/16 19 16 30.20 63% 19 Trace Trace
11/18/16 31 16 30.08 65% 16 1.07" 7.5"
11/17/16 42 31 29.91 87% 32 .1" .5"
11/16/16 41 34 29.88 88% 35 .9"
11/15/16 42 38 29.92 93% 38 .7"
11/14/16 43 33 29.95 87% 34 0
11/13/16 57 32 29.90 69% 40 0
11/12/16 42 26 30.10 68% 341 0
11/11/16 39 26 30.08 51% 36 0
11/10/16 56 30 30.30 62% 30 0
11/9/16 56 34 29.90 57% 45 0
11/8/16 50 32 30.20 79% 34 0
11/7/16 58 41 30.20 69% 40 0
11/6/16 65 46 30.08 60% 48 0
11/5/16 62 35 30.17 84% 45 0
11/4/16 58 34 30.19 87% 38 0
11/3/16 42 34 30.19 96% 39 0
11/2/16 52 33 30.15 94% 41 .15"
11/1/16 45 32 30.80 83% 33 0
10/31/16 50 39 29.80 76% 44 0
10/30/16 41 32 30.00 93% 38 0
10/29/16 44 38 30.15 78% 40 Trace
10/28/16 46 40 29.98 96% 44 .16"
10/27/16 43 38 30.00 98% 40 .03"
10/26/16 40 37 30.17 95% 37 0
10/25/16 44 28 30.28 81% 37 0
10/24/16 45 28 30.24 75% 28 0
10/23/16 42 32 30.19 83% 32 .51"
10/22/16 53 36 30.01 84% 38 .03"
10/21/16 43 35 30.02 85% 38 0
10/20/16 41 33 30.16 85% 35 .06"
10/19/16 42 33 30.14 76% 34 Trace
10/18/16 52 42 29.97 68% 42 Trace
10/17/16 54 46 29.77 98% 49 .07"
10/16/16 56 39 29.80 98% 46 .29"
 


Home I Trip Planning I Rentals and Outfitting I Reservations I Campgrounds I Sawbill Store I Sawbill News I Contact

© 1997 - 2017, Sawbill Canoe Outfitters, Inc. I Privacy Policy